Regional Weather Roundup
Issued by NWS Northern Indiana

Home | Current Version | Previous Version | Graphics & Text | Print | Product List | Glossary On
Versions: 1 2 3 4 5 6 7 8 9 10 11 12 13 14 15 16 17 18 19 20 21 22 23 24 25 26 27 28 29 30 31 32 33 34 35 36 37 38 39 40 41 42 43 44 45 46 47 48 49 50
000
ASUS43 KIWX 060900
RWRIWX

KIWX WEATHER ROUNDUP
NATIONAL WEATHER SERVICE NORTHERN INDIANA
500 AM EDT FRI MAY 06 2016

NOTE: "FAIR" INDICATES FEW OR NO CLOUDS BELOW 12,000 FEET WITH NO
SIGNIFICANT WEATHER AND/OR OBSTRUCTIONS TO VISIBILITY.

* THESE STATIONS ARE NOT UNDER NWS QUALITY CONTROL. THEY ALSO MAY NOT
  REPORT WEATHER SUCH AS PRECIPITATION OR FOG.

INZ001>027-061000-
NORTHERN INDIANA

CITY           SKY/WX    TMP DP  RH WIND       PRES   REMARKS
SOUTH BEND     CLEAR     36  34  92 S3        29.97S
GOSHEN         CLEAR     40  36  86 W5        29.95S
ANGOLA*          N/A     45  37  76 N3        29.94S
FORT WAYNE     CLEAR     46  37  71 NW7       29.94S

$$
INZ028>050-061000-
CENTRAL INDIANA

CITY           SKY/WX    TMP DP  RH WIND       PRES   REMARKS
LAFAYETTE      CLEAR     39  38  96 CALM      29.98F
KOKOMO*        CLEAR     43  36  75 W7        29.96S
MUNCIE*        CLEAR     45  40  82 NW3       29.94S
INDIANAPOLIS   CLEAR     44  38  79 NW7       29.95S

$$
MIZ043>046-050>051-056>058-064>065-071>073-077>080-061000-
SOUTHWEST LOWER MICHIGAN

CITY           SKY/WX    TMP DP  RH WIND       PRES   REMARKS
BATTLE CREEK   CLEAR     43  36  76 CALM      29.95S
BENTON HARBOR  PTCLDY    35  33  92 CALM      29.97S
COLDWATER*     CLEAR     40  37  88 W3        29.94S
HILLSDALE*     PTCLDY    43  40  86 CALM      29.93R
HOLLAND        PTCLDY   N/A N/A N/A W5        29.96F
GRAND RAPIDS   PTCLDY    45  37  73 W3        29.95S
KALAMAZOO      CLEAR     41  34  76 CALM      29.95S
STURGIS*       CLEAR     41  35  79 CALM      29.94S
THREE RIVERS*  FAIR      43  35  74 CALM      29.95S

$$
OHZ001>008-015>018-024>025-061000-
NORTHWEST OHIO

CITY           SKY/WX    TMP DP  RH WIND       PRES   REMARKS
DEFIANCE       CLEAR     48  40  73 NW3       29.92S
FINDLAY        CLEAR     49  36  61 N6        29.90S
TOLEDO EXPRESS CLEAR     46  39  76 CALM      29.91S
TOLEDO METCALF CLEAR     46  36  68 NW6       29.92S
LIMA           PTCLDY    47  41  80 N3        29.91S

$$
AND FOR LAKE MICHIGAN COASTAL AND OPEN LAKE BUOY OBSERVATIONS

STATION/POSITION TEMP    WIND        PRES    VSBY  WAVE
                 AIR SEA DIR/SP/G                  HT/PER
                 (F)     (DEG/KT/KT) (MB)    (MI)  (FT/S)
CALUMET HARBOR    46     210/  3/  5 1014.3F
MICHIGAN CITY     42     130/  4/  4   N/A
BURNS HARBOR      44     190/  3/  5 1015.6F
SAINT JOSEPH      45     200/  4/  5 1015.6S
SOUTH LAKE BUOY   42 40  220/  4/  6 1014.7          1/ 5
4 MI NW BRIDGMAN  45 47                N/A           2/ 5

$$
&&



USA.gov is the U.S. government's official web portal to all federal, state and local government web resources and services.